Wind_Speed
41 41 41 41 40 37 28 34 39 40 24 35 46 55 49 48 37 27 31 41 39 37 32 31 37 35 27 19 28 41 38 24 29 39 21 26 37 31 29 23 16 11 9 10
45 45 45 43 40 34 34 38 42 40 33 47 52 47 44 43 43 37 37 34 33 43 36 28 30 19 28 16 24 37 34 32 19 27 27 26 44 36 32 27 30 21 8 13
43 42 41 39 38 35 35 39 38 44 41 52 44 45 48 47 37 35 35 38 30 35 38 26 30 15 21 32 18 21 32 31 36 26 26 23 18 34 31 26 29 25 24 19
40 40 40 40 40 37 38 46 52 45 36 54 48 47 43 36 40 34 30 39 36 35 30 31 30 30 18 24 28 28 30 24 35 29 30 28 31 29 29 30 29 29 32 28
45 44 45 45 45 39 45 54 59 46 52 37 48 52 50 38 22 23 27 38 33 35 33 31 33 33 22 18 28 32 21 25 28 31 31 28 25 31 30 35 33 30 30 25
43 43 44 45 44 45 51 56 59 50 38 49 41 49 52 44 30 28 28 27 29 36 39 17 29 28 27 24 24 33 23 12 22 25 34 29 27 34 31 23 27 28 24 22
39 40 40 39 45 51 56 59 59 58 54 35 52 48 37 41 44 35 28 30 31 31 37 21 34 29 20 15 26 24 28 13 14 13 17 14 15 20 20 25 30 19 14 13
40 40 42 45 47 51 56 57 61 62 62 50 34 42 46 37 28 46 34 31 28 23 21 29 22 28 34 18 17 25 33 15 11 6 20 14 19 21 20 24 22 23 22 21
45 46 47 48 51 52 52 58 50 59 60 64 39 35 30 36 39 34 41 32 25 22 24 29 21 14 12 11 9 20 21 20 13 1 1 7 23 19 16 16 22 15 18 21
45 46 47 49 50 48 53 57 58 43 60 58 56 28 39 27 31 32 30 31 29 31 29 29 26 19 16 8 14 18 19 18 22 15 7 12 15 22 20 20 11 17 16 17
44 44 45 48 52 49 51 53 56 47 53 53 54 55 37 33 35 35 28 32 30 27 33 31 22 20 23 23 13 21 22 19 19 19 9 9 12 11 24 21 23 25 26 20
46 48 48 47 46 50 51 52 51 51 42 47 42 52 37 36 32 33 28 28 26 27 31 31 28 19 20 27 20 16 29 25 18 21 21 4 15 22 11 20 13 11 19 22
39 39 42 50 47 45 47 50 49 46 43 51 50 47 53 29 33 31 33 29 26 30 33 29 28 17 26 19 29 27 17 20 19 19 17 25 28 17 27 26 18 21 20 23
34 36 39 45 48 46 48 50 49 45 45 38 42 41 43 29 26 36 31 29 28 25 28 37 26 22 15 32 23 21 25 21 22 20 21 11 19 14 22 33 21 25 19 18
30 33 38 42 46 46 48 46 41 46 38 35 45 34 39 40 17 27 33 27 27 27 32 35 30 26 19 24 32 34 27 28 18 18 16 19 17 16 13 15 20 21 21 26
32 36 37 39 43 47 45 39 36 42 40 27 34 34 28 27 27 23 33 31 29 28 30 38 50 29 28 12 26 28 31 26 19 17 14 17 19 18 17 14 19 23 25 27
34 37 37 39 43 46 44 42 41 38 35 28 22 19 25 28 28 30 27 27 31 32 32 39 43 38 27 31 29 25 19 24 25 23 21 18 17 21 24 20 17 16 16 19
38 40 44 43 42 38 38 38 34 41 48 30 11 14 27 30 23 21 20 23 26 32 31 33 52 28 32 36 38 34 26 28 29 16 24 24 24 25 26 25 24 24 21 21
41 43 45 43 43 35 31 30 33 35 29 16 19 20 16 18 21 23 21 18 22 20 25 30 39 25 29 27 21 34 33 31 25 20 22 18 20 20 24 26 22 21 19 20
44 50 55 42 48 34 28 30 42 38 34 20 20 23 17 10 10 23 24 24 18 16 22 20 30 48 23 12 19 26 32 34 33 33 31 29 29 28 26 26 25 22 20 21
41 44 41 43 38 35 23 15 15 15 15 24 23 24 19 18 13 15 15 13 13 12 14 16 16 25 23 25 24 23 27 27 25 25 27 26 25 26 21 17 18 20 20 20
34 43 43 37 26 10 7 9 9 7 10 11 24 22 20 18 15 14 9 13 12 8 19 15 9 18 27 33 35 25 24 22 20 22 21 22 21 17 14 13 16 18 17 15
35 34 22 11 6 5 6 8 9 9 15 18 20 27 24 21 19 13 10 13 12 12 17 13 19 24 23 29 29 29 19 20 18 17 20 20 20 20 18 19 20 19 20 19
20 11 10 6 5 6 6 10 13 13 13 13 12 14 15 17 11 10 6 6 8 7 6 12 20 24 26 27 29 26 24 25 26 22 23 25 26 24 23 23 18 20 20 17
9 6 7 7 9 9 13 11 14 13 13 14 11 12 11 12 9 8 7 10 7 13 17 13 29 23 31 33 30 26 27 30 31 32 29 24 22 23 23 24 21 16 13 11
6 7 10 9 7 8 9 10 12 16 9 8 12 8 5 7 5 7 7 6 7 13 19 23 19 26 25 27 25 22 20 23 22 20 20 20 18 15 15 16 13 10 8 5
5 7 8 6 4 1 5 8 11 11 10 10 7 4 4 3 3 4 5 7 9 13 18 22 26 24 23 22 21 22 20 18 18 18 19 19 17 14 12 9 9 7 6 5
Wind_Direction
260 258 254 253 252 254 235 230 234 243 231 217 229 239 241 249 244 247 250 255 255 263 278 303 291 256 246 235 216 212 216 229 239 243 235 244 222 220 226 226 232 233 201 232
262 259 255 254 248 233 229 229 233 238 230 231 232 238 247 253 250 246 243 251 249 246 277 292 294 273 233 245 220 216 213 220 257 261 252 252 214 217 222 227 237 243 187 245
260 255 249 243 236 228 222 225 229 230 232 235 238 236 245 248 257 251 242 246 249 243 252 279 279 280 232 214 235 198 205 216 226 235 234 244 220 213 222 226 227 242 252 252
254 250 243 238 234 225 216 223 229 226 225 226 235 238 244 252 251 250 251 245 244 232 253 272 275 267 238 213 227 221 208 230 223 234 238 238 234 230 225 229 244 229 253 266
252 247 241 236 235 223 217 222 222 227 229 230 231 234 236 240 238 250 240 244 249 232 237 250 266 287 251 252 210 215 215 239 229 243 226 236 231 241 237 234 242 249 244 251
250 247 242 236 227 211 215 221 225 225 236 230 231 234 234 232 239 233 242 255 262 243 225 236 285 269 269 280 232 216 215 219 219 248 232 246 265 232 241 235 252 244 241 245
242 238 232 228 221 216 217 220 223 221 224 232 235 235 239 236 232 237 222 237 255 248 232 259 275 245 259 233 233 236 221 221 209 248 242 239 247 231 230 246 255 249 233 228
237 235 230 226 223 222 221 220 224 225 226 222 229 232 237 238 241 237 233 226 236 262 245 245 266 268 292 204 209 208 205 241 203 210 210 248 239 232 233 247 266 251 252 251
240 237 235 232 227 223 225 220 222 228 228 225 222 223 228 229 235 240 230 226 225 238 239 242 243 244 262 198 196 222 222 228 232 10 283 215 245 224 227 242 250 237 255 254
243 238 231 228 225 223 221 220 219 220 224 229 221 225 217 220 227 238 231 220 227 227 227 233 221 230 245 274 189 186 199 209 231 236 274 249 256 242 221 240 247 244 243 250
240 236 231 225 221 220 216 219 220 218 223 227 223 221 225 222 222 225 230 224 227 236 225 227 219 223 229 236 252 204 192 188 231 251 239 228 191 192 224 247 253 262 253 254
234 231 224 219 217 215 211 216 214 210 215 219 219 221 215 215 218 222 223 231 225 226 215 218 224 218 215 217 233 239 219 223 219 232 230 198 234 224 210 204 236 226 247 248
217 217 217 213 208 208 205 207 210 205 209 223 220 218 220 233 222 213 218 220 229 232 236 224 225 225 215 213 222 230 238 239 241 253 250 234 233 240 230 225 234 237 250 251
212 212 211 203 200 198 199 202 206 205 205 207 218 219 212 212 219 212 216 220 225 228 225 228 218 229 218 224 231 225 233 250 240 255 251 251 257 268 254 230 233 234 244 239
203 199 195 191 191 191 194 201 203 203 196 208 213 215 218 223 216 207 211 224 227 224 224 235 236 218 223 233 236 245 230 224 228 240 249 245 246 257 260 260 242 237 261 266
181 180 179 176 179 182 184 188 197 193 190 172 184 198 185 205 211 227 221 231 233 238 244 234 235 235 224 240 233 236 224 216 231 247 252 249 250 244 241 240 242 243 249 256
162 165 163 162 168 171 178 183 189 184 178 165 169 176 198 214 232 232 225 233 236 241 244 241 229 238 227 234 246 235 214 218 232 239 238 235 230 237 248 253 251 250 253 256
142 143 148 149 156 165 180 191 183 174 188 182 150 173 193 207 220 230 235 233 231 238 246 250 233 233 228 240 237 226 210 207 214 227 233 243 250 253 257 261 262 266 258 259
133 137 144 148 155 141 154 178 170 174 179 168 163 162 163 192 212 217 221 226 230 239 247 246 232 247 210 226 225 225 219 219 212 220 238 242 248 253 253 259 262 259 263 264
139 146 143 138 161 152 138 149 169 179 191 201 200 201 205 211 225 210 212 223 222 230 244 240 236 234 204 197 229 229 237 242 238 228 239 246 249 251 257 262 265 262 269 280
142 141 127 128 129 143 131 137 161 179 195 207 206 217 222 229 217 197 209 215 205 226 223 223 224 238 226 220 227 217 218 223 223 223 233 243 253 260 266 268 260 264 268 272
136 131 123 132 133 104 102 122 135 154 178 200 214 215 219 215 213 237 250 226 179 202 192 187 217 215 215 226 221 222 213 216 223 228 231 237 254 253 246 256 268 273 272 271
125 118 116 118 93 109 124 137 156 171 176 193 197 203 211 221 237 210 215 205 193 177 182 198 225 215 220 215 225 218 214 222 226 235 241 246 249 250 257 274 281 276 275 283
111 87 89 87 79 100 144 163 173 161 174 188 192 195 199 215 202 197 212 183 179 178 217 215 220 213 215 223 228 231 232 237 238 237 249 259 260 265 271 276 263 263 259 248
77 67 70 85 112 126 156 166 172 168 167 174 201 219 223 207 199 193 174 177 194 198 206 219 221 216 211 216 227 233 237 238 245 252 255 256 257 260 258 240 233 208 190 181
50 64 111 125 134 144 159 167 181 178 185 189 221 247 191 195 210 192 182 184 186 194 196 205 222 218 214 216 218 227 233 248 260 256 244 234 216 199 187 159 150 151 144 136
76 112 121 114 91 39 141 157 171 192 205 213 238 221 171 165 199 168 179 192 187 174 179 186 199 198 198 209 216 222 219 223 210 182 156 149 143 140 130 128 119 108 98 89
Height
2961 2965 2969 2973 2979 2985 2989 2990 2988 2990 3001 3002 2992 2984 2992 2998 3004 3013 3016 3017 3017 3015 3019 3023 3022 3022 3020 3022 3024 3026 3033 3039 3041 3039 3041 3047 3049 3053 3060 3062 3065 3063 3064 3067
2948 2951 2956 2960 2966 2973 2979 2978 2980 2982 2990 2981 2980 2986 2987 2990 2996 3001 3006 3008 3011 3012 3017 3021 3017 3013 3016 3019 3019 3021 3029 3031 3038 3038 3038 3036 3037 3046 3051 3056 3059 3058 3060 3061
2932 2936 2941 2947 2953 2961 2968 2970 2971 2973 2974 2971 2978 2982 2980 2983 2990 2993 2999 3000 3007 3007 3008 3016 3011 3007 3012 3014 3016 3017 3021 3024 3029 3026 3030 3034 3034 3038 3044 3048 3050 3053 3052 3056
2917 2922 2928 2934 2940 2949 2956 2956 2952 2956 2956 2960 2969 2975 2975 2980 2984 2989 2994 2991 2997 3000 3006 3009 3008 3009 3004 3008 3011 3015 3016 3016 3024 3025 3028 3031 3035 3035 3038 3040 3044 3046 3050 3051
2903 2908 2914 2920 2927 2936 2941 2940 2940 2947 2952 2956 2962 2963 2965 2974 2981 2985 2987 2985 2992 2997 3000 3006 3002 3003 3002 3004 3006 3008 3010 3011 3017 3018 3022 3025 3028 3030 3033 3035 3038 3040 3043 3044
2886 2892 2898 2904 2912 2920 2923 2927 2933 2942 2942 2947 2951 2949 2959 2969 2978 2979 2982 2984 2986 2988 2992 3000 3000 2998 2997 2993 3000 3002 3006 3009 3012 3011 3018 3021 3019 3022 3026 3030 3033 3034 3035 3039
2871 2876 2883 2890 2897 2904 2911 2915 2924 2932 2930 2934 2936 2947 2956 2962 2969 2972 2975 2978 2981 2983 2994 2995 2995 2992 2993 2992 2997 3000 3003 3007 3007 3007 3013 3013 3011 3015 3022 3025 3027 3029 3030 3032
2858 2863 2870 2877 2885 2893 2899 2907 2911 2917 2920 2931 2936 2942 2949 2959 2962 2963 2969 2972 2980 2987 2991 2995 2994 2990 2988 2986 2991 2993 2998 3003 3004 3006 3004 3005 3005 3010 3015 3019 3021 3022 3024 3027
2842 2848 2856 2863 2871 2880 2888 2893 2902 2910 2916 2915 2936 2939 2943 2947 2951 2959 2960 2969 2976 2981 2985 2988 2985 2989 2990 2985 2988 2991 2994 2998 3003 3001 3001 3000 2999 3006 3011 3013 3013 3018 3020 3023
2824 2831 2839 2848 2857 2867 2874 2881 2890 2901 2903 2913 2928 2933 2935 2944 2949 2952 2957 2962 2968 2972 2976 2981 2982 2982 2985 2984 2983 2988 2990 2995 2998 3002 3001 2994 2999 3002 3008 3008 3014 3015 3017 3019
2807 2814 2823 2833 2844 2854 2864 2870 2881 2891 2896 2905 2917 2926 2932 2938 2944 2946 2951 2961 2962 2964 2967 2972 2975 2977 2979 2983 2983 2983 2984 2989 2994 2998 2999 2996 2997 2999 3003 3006 3008 3011 3013 3015
2789 2799 2808 2819 2831 2842 2854 2863 2872 2886 2894 2900 2910 2917 2928 2934 2940 2945 2948 2952 2955 2957 2959 2965 2969 2971 2974 2976 2977 2980 2981 2982 2987 2990 2988 2992 2993 2995 2997 2999 3005 3007 3007 3008
2775 2786 2795 2807 2820 2834 2844 2854 2865 2879 2887 2894 2903 2912 2922 2929 2934 2939 2942 2946 2952 2952 2955 2960 2963 2965 2969 2968 2970 2977 2978 2981 2982 2985 2985 2986 2990 2992 2993 2997 2999 3000 3001 3004
2766 2776 2786 2798 2812 2826 2839 2848 2860 2875 2882 2890 2897 2909 2916 2924 2927 2933 2937 2942 2945 2949 2952 2950 2955 2956 2959 2961 2967 2970 2975 2978 2978 2979 2980 2983 2983 2985 2989 2990 2994 2996 2998 2999
2759 2770 2781 2793 2807 2823 2837 2848 2859 2870 2884 2886 2896 2905 2912 2917 2923 2928 2933 2936 2940 2942 2946 2946 2949 2952 2958 2960 2963 2961 2969 2971 2972 2974 2976 2979 2981 2982 2983 2985 2988 2991 2993 2994
2756 2768 2780 2793 2806 2822 2835 2847 2857 2868 2880 2887 2894 2902 2908 2914 2921 2926 2930 2932 2936 2937 2939 2942 2943 2949 2957 2956 2954 2957 2962 2966 2970 2972 2972 2975 2977 2978 2980 2981 2983 2984 2986 2986
2760 2772 2783 2796 2810 2824 2834 2843 2850 2864 2878 2883 2893 2900 2906 2912 2917 2922 2925 2928 2930 2932 2933 2934 2939 2947 2951 2950 2949 2953 2957 2960 2964 2965 2967 2968 2970 2973 2975 2977 2978 2978 2979 2980
2768 2780 2792 2806 2819 2832 2840 2847 2858 2868 2875 2883 2890 2897 2903 2907 2912 2916 2920 2923 2926 2926 2928 2930 2935 2941 2945 2942 2942 2948 2953 2956 2958 2959 2961 2963 2964 2967 2969 2970 2973 2974 2974 2974
2781 2791 2802 2814 2827 2834 2841 2851 2860 2870 2880 2882 2887 2892 2898 2903 2907 2912 2916 2918 2920 2922 2921 2924 2930 2929 2928 2933 2937 2942 2946 2950 2954 2957 2955 2957 2959 2962 2963 2964 2966 2968 2969 2970
2795 2804 2813 2822 2832 2842 2849 2860 2866 2872 2875 2880 2885 2890 2896 2901 2904 2908 2913 2914 2917 2916 2916 2920 2922 2924 2928 2932 2934 2936 2938 2939 2945 2948 2949 2951 2954 2956 2958 2960 2961 2963 2963 2964
2809 2816 2822 2831 2839 2848 2855 2861 2867 2872 2876 2880 2885 2890 2895 2898 2901 2903 2907 2908 2909 2907 2908 2912 2917 2920 2924 2926 2926 2927 2928 2932 2937 2942 2945 2946 2950 2952 2953 2954 2955 2956 2957 2957
2824 2825 2833 2841 2849 2855 2860 2864 2869 2872 2876 2877 2882 2887 2891 2894 2896 2899 2901 2899 2900 2900 2903 2909 2910 2911 2912 2916 2919 2923 2927 2932 2935 2938 2941 2943 2945 2947 2948 2949 2949 2950 2950 2950
2834 2839 2844 2849 2854 2857 2861 2864 2867 2868 2870 2873 2876 2881 2885 2889 2892 2893 2893 2892 2894 2896 2899 2900 2902 2905 2910 2912 2915 2921 2924 2929 2932 2934 2937 2939 2940 2941 2942 2943 2944 2944 2944 2944
2841 2843 2847 2852 2855 2858 2860 2862 2864 2867 2869 2872 2876 2879 2881 2882 2884 2886 2886 2885 2884 2883 2884 2887 2893 2899 2904 2909 2913 2917 2921 2924 2927 2929 2932 2933 2934 2935 2936 2936 2937 2937 2937 2937
2844 2847 2851 2855 2857 2859 2861 2863 2865 2867 2869 2872 2874 2876 2877 2877 2878 2878 2880 2883 2883 2883 2883 2887 2893 2896 2901 2905 2908 2912 2916 2918 2921 2924 2925 2927 2928 2928 2929 2929 2929 2930 2931 2932
2849 2851 2855 2857 2859 2860 2861 2863 2865 2868 2870 2871 2872 2873 2872 2873 2873 2873 2873 2874 2875 2876 2880 2884 2889 2892 2896 2900 2903 2906 2909 2912 2915 2917 2919 2920 2921 2922 2924 2925 2927 2928 2930 2932
2855 2856 2857 2859 2860 2860 2861 2863 2865 2867 2869 2870 2870 2870 2869 2871 2870 2870 2869 2870 2872 2873 2877 2880 2885 2889 2894 2898 2901 2904 2906 2909 2911 2913 2916 2918 2921 2923 2924 2926 2927 2929 2930 2931